Location: Zagreb
(45.8000°N, 16.0000°E)
Time: 15:16:00
(UTC+02:00)

Transit 2A - Pass Details

Date: 18 August 2022
Orbit: 601 x 956 km, 66.7° (Epoch: 25 September)

Event Time Altitude Azimuth Distance (km) Brightness Sun altitude
Rises 18:45:58 0° 331° (NNW) 2,860 9.5 11.6°
Reaches altitude 10° 18:48:18 10° 340° (NNW) 1,960 8.6 11.2°
Maximum altitude 18:52:26 40° 50° (NE) 920 6.3 10.5°
Drops below altitude 10° 18:56:43 10° 121° (ESE) 2,040 7.7 9.8°
Sets 18:59:12 0° 128° (SE) 2,993 8.5 9.3°
